Orbital Elements at Epoch 2459200.5 (2020-Dec-17.0) TDB
Reference: JPL 10 (heliocentric ecliptic J2000)
Element | Value | Uncertainty (1-sigma) | Units |
e | .3442339236672337 | 8.0247e-08 | |
a | 2.31438715885775 | 1.1612e-08 | au |
q | 1.517696586279086 | 1.8929e-07 | au |
i | 22.46652403811357 | 6.2884e-06 | deg |
node | 317.4062904200388 | 1.4327e-05 | deg |
peri | 223.9478085889206 | 1.9971e-05 | deg |
M | 252.3249808731273 | 2.546e-05 | deg |
tp | 2459585.149259051697 (2022-Jan-05.64925905) | 9.3002e-05 | TDB |
period | 1286.033978739753 3.52 | 9.6786e-06 2.65e-08 | d yr |
n | .2799303952705677 | 2.1067e-09 | deg/d |
Q | 3.111077731436415 | 1.5609e-08 | au |
|
| | Orbit Determination Parameters
Additional Information
|